When you browse on this site, cookies collect data to enhance your experience and personalize the content and advertising you see.
Visit our Privacy Policy to learn more. By continuing to use the site, you agree to this use of cookies and data.
  • In Slovakia
  • List of Countries
  • For 7 days
  • Water Temperature
  • Satellite Maps
  • Weather Map
  • Weather Widgets
  • user-avatar
    Login

    Hourly Weather Grzawa

    Today, 19 December, Wednesday

    Time Temperature Precipitation Wind Pressure Humidity
    00:00 -3°C° 0 mm 2 mps 748 mmHg 88%
    01:00 -4°C° 0 mm 2 mps 748 mmHg 89%
    02:00 -4°C° 0 mm 2 mps 747 mmHg 88%
    03:00 -4°C° 0 mm 2 mps 747 mmHg 88%
    04:00 -4°C° 0 mm 2 mps 747 mmHg 88%
    05:00 -4°C° 0 mm 2 mps 747 mmHg 87%
    06:00 -4°C° 0 mm 2 mps 747 mmHg 87%
    07:00 -4°C° 0 mm 2 mps 747 mmHg 86%
    08:00 -4°C° 0 mm 2 mps 746 mmHg 83%
    09:00 -3°C° 0 mm 2 mps 746 mmHg 80%
    10:00 -2°C° 0 mm 2 mps 746 mmHg 76%
    11:00 -1°C° 0 mm 2 mps 746 mmHg 75%
    12:00 +1°C° 0 mm 2 mps 746 mmHg 74%
    13:00 +2°C° 0 mm 2 mps 745 mmHg 72%
    14:00 +1°C° 0 mm 2 mps 745 mmHg 76%
    15:00 -1°C° 0 mm 2 mps 745 mmHg 79%
    16:00 -2°C° 0 mm 2 mps 745 mmHg 83%
    17:00 -3°C° 0 mm 2 mps 744 mmHg 83%
    18:00 -3°C° 0 mm 2 mps 744 mmHg 83%
    19:00 -3°C° 0 mm 2 mps 744 mmHg 84%
    20:00 -3°C° 0 mm 2 mps 744 mmHg 83%
    21:00 -3°C° 0 mm 2 mps 744 mmHg 82%
    22:00 -3°C° 0 mm 2 mps 744 mmHg 81%
    23:00 -3°C° 0 mm 2 mps 743 mmHg 80%

    Tomorrow, 20 December, Thursday

    Time Temperature Precipitation Wind Pressure Humidity
    00:00 -3°C° 0 mm 2 mps 743 mmHg 78%
    01:00 0°C° 0 mm 1 mps 743 mmHg 77%
    02:00 0°C° 0 mm 1 mps 743 mmHg 76%
    03:00 0°C° 0 mm 1 mps 743 mmHg 75%
    04:00 0°C° 0 mm 1 mps 743 mmHg 74%
    05:00 -2°C° 0 mm 2 mps 743 mmHg 74%
    06:00 -2°C° 0 mm 2 mps 743 mmHg 75%
    07:00 -2°C° 0 mm 2 mps 743 mmHg 76%
    08:00 -2°C° 0 mm 2 mps 743 mmHg 76%
    09:00 -1°C° 0 mm 3 mps 743 mmHg 76%
    10:00 -1°C° 0 mm 3 mps 743 mmHg 76%
    11:00 -1°C° 0 mm 3 mps 743 mmHg 75%
    12:00 -1°C° 0 mm 3 mps 743 mmHg 75%
    13:00 -1°C° 0 mm 4 mps 742 mmHg 75%
    14:00 -1°C° 0 mm 3 mps 743 mmHg 77%
    15:00 -1°C° 0 mm 3 mps 743 mmHg 80%
    16:00 -1°C° 0 mm 3 mps 743 mmHg 83%
    17:00 -1°C° 0.1 mm 3 mps 743 mmHg 84%
    18:00 -1°C° 0.1 mm 3 mps 743 mmHg 85%
    19:00 -1°C° 0.1 mm 3 mps 743 mmHg 87%
    20:00 -1°C° 0.1 mm 3 mps 743 mmHg 87%
    21:00 -1°C° 0.1 mm 3 mps 743 mmHg 87%
    22:00 -1°C° 0.1 mm 3 mps 743 mmHg 88%
    23:00 -1°C° 0 mm 3 mps 743 mmHg 88%

    Day after tomorrow, 21 December, Friday

    Time Temperature Precipitation Wind Pressure Humidity
    00:00 -1°C° 0 mm 3 mps 743 mmHg 89%
    01:00 -2°C° 0 mm 4 mps 743 mmHg 89%
    02:00 -2°C° 0 mm 4 mps 743 mmHg 89%
    03:00 -2°C° 0 mm 4 mps 743 mmHg 89%
    04:00 -2°C° 0 mm 4 mps 743 mmHg 89%
    05:00 -2°C° 0 mm 4 mps 742 mmHg 89%
    06:00 -1°C° 0 mm 4 mps 742 mmHg 89%
    07:00 -1°C° 0 mm 4 mps 742 mmHg 88%
    08:00 -1°C° 0.2 mm 4 mps 742 mmHg 87%
    09:00 0°C° 0.2 mm 4 mps 742 mmHg 86%
    10:00 +1°C° 0.2 mm 4 mps 741 mmHg 84%
    11:00 +1°C° 0.2 mm 4 mps 741 mmHg 83%
    12:00 +1°C° 0.2 mm 4 mps 740 mmHg 82%
    13:00 +3°C° 0.2 mm 4 mps 739 mmHg 80%
    14:00 +3°C° 0.4 mm 4 mps 739 mmHg 82%
    15:00 +1°C° 0.4 mm 4 mps 738 mmHg 83%
    16:00 +1°C° 0.4 mm 4 mps 737 mmHg 84%
    17:00 +1°C° 0.6 mm 5 mps 737 mmHg 84%
    18:00 +1°C° 0.6 mm 5 mps 737 mmHg 84%
    19:00 +1°C° 0.6 mm 6 mps 736 mmHg 84%
    20:00 +2°C° 0.8 mm 6 mps 735 mmHg 85%
    21:00 +2°C° 0.8 mm 6 mps 735 mmHg 86%
    22:00 +2°C° 0.8 mm 7 mps 734 mmHg 87%
    23:00 +3°C° 0.4 mm 7 mps 734 mmHg 87%

    22 December, Saturday

    Time Temperature Precipitation Wind Pressure Humidity
    00:00 +3°C° 0.4 mm 7 mps 734 mmHg 88%
    01:00 +3°C° 0.4 mm 7 mps 734 mmHg 88%
    02:00 +3°C° 0.2 mm 6 mps 734 mmHg 89%
    03:00 +3°C° 0.2 mm 6 mps 734 mmHg 89%
    04:00 +4°C° 0.2 mm 6 mps 734 mmHg 90%
    05:00 +4°C° 0.1 mm 6 mps 734 mmHg 90%
    06:00 +5°C° 0.1 mm 5 mps 734 mmHg 91%
    07:00 +5°C° 0.1 mm 5 mps 734 mmHg 91%
    08:00 +5°C° 0.1 mm 5 mps 734 mmHg 91%
    09:00 +4°C° 0.1 mm 6 mps 734 mmHg 90%
    10:00 +4°C° 0.1 mm 6 mps 734 mmHg 90%
    11:00 +4°C° 0.6 mm 6 mps 734 mmHg 90%
    12:00 +4°C° 0.6 mm 6 mps 734 mmHg 90%
    13:00 +4°C° 0.6 mm 6 mps 733 mmHg 90%
    14:00 +4°C° 0.5 mm 6 mps 733 mmHg 89%
    15:00 +4°C° 0.5 mm 6 mps 733 mmHg 89%
    16:00 +4°C° 0.5 mm 6 mps 733 mmHg 88%
    17:00 +4°C° 0.4 mm 6 mps 734 mmHg 86%
    18:00 +4°C° 0.4 mm 6 mps 734 mmHg 83%
    19:00 +4°C° 0.4 mm 6 mps 735 mmHg 81%
    20:00 +4°C° 0.1 mm 6 mps 735 mmHg 80%
    21:00 +3°C° 0.1 mm 6 mps 736 mmHg 79%
    22:00 +3°C° 0.1 mm 6 mps 736 mmHg 77%
    23:00 +3°C° 0 mm 6 mps 736 mmHg 79%

    23 December, Sunday

    Time Temperature Precipitation Wind Pressure Humidity
    00:00 +2°C° 0 mm 5 mps 737 mmHg 81%
    01:00 +2°C° 0 mm 5 mps 737 mmHg 82%
    02:00 +2°C° 0 mm 5 mps 737 mmHg 83%
    03:00 +2°C° 0 mm 5 mps 737 mmHg 85%
    04:00 +2°C° 0 mm 5 mps 737 mmHg 86%
    05:00 +2°C° 0.1 mm 5 mps 737 mmHg 86%
    06:00 +2°C° 0.1 mm 5 mps 737 mmHg 86%
    07:00 +2°C° 0.1 mm 5 mps 738 mmHg 86%
    08:00 +2°C° 0.1 mm 5 mps 738 mmHg 85%
    09:00 +2°C° 0.1 mm 5 mps 738 mmHg 83%
    10:00 +3°C° 0.1 mm 5 mps 739 mmHg 82%
    11:00 +3°C° 0.1 mm 5 mps 739 mmHg 81%
    12:00 +3°C° 0.1 mm 5 mps 739 mmHg 81%
    13:00 +3°C° 0.1 mm 6 mps 739 mmHg 80%
    14:00 +3°C° 0.2 mm 5 mps 739 mmHg 81%
    15:00 +2°C° 0.2 mm 5 mps 739 mmHg 82%
    16:00 +2°C° 0.2 mm 5 mps 739 mmHg 83%
    17:00 +3°C° 0.1 mm 4 mps 739 mmHg 83%
    18:00 +3°C° 0.1 mm 4 mps 740 mmHg 83%
    19:00 +1°C° 0.1 mm 4 mps 740 mmHg 83%
    20:00 +1°C° 0.2 mm 4 mps 740 mmHg 83%
    21:00 +1°C° 0.2 mm 4 mps 740 mmHg 83%
    22:00 +1°C° 0.2 mm 4 mps 740 mmHg 84%
    23:00 +1°C° 0.4 mm 4 mps 740 mmHg 84%

    24 December, Monday

    Time Temperature Precipitation Wind Pressure Humidity
    00:00 +1°C° 0.4 mm 4 mps 740 mmHg 85%
    01:00 +1°C° 0.4 mm 4 mps 739 mmHg 85%
    02:00 +1°C° 0.5 mm 5 mps 740 mmHg 85%
    03:00 +1°C° 0.5 mm 5 mps 740 mmHg 84%
    04:00 +1°C° 0.5 mm 6 mps 740 mmHg 83%
    05:00 +1°C° 0.5 mm 6 mps 740 mmHg 85%
    06:00 +1°C° 0.5 mm 5 mps 741 mmHg 86%
    07:00 0°C° 0.5 mm 5 mps 741 mmHg 87%
    08:00 0°C° 0.1 mm 4 mps 742 mmHg 87%
    09:00 +1°C° 0.1 mm 3 mps 743 mmHg 86%
    10:00 +2°C° 0.1 mm 2 mps 744 mmHg 86%
    11:00 +2°C° 0.1 mm 2 mps 744 mmHg 85%
    12:00 +3°C° 0.1 mm 2 mps 744 mmHg 85%
    13:00 +3°C° 0.1 mm 2 mps 744 mmHg 85%
    14:00 +2°C° 0.2 mm 3 mps 744 mmHg 86%
    15:00 +2°C° 0.2 mm 3 mps 744 mmHg 88%
    16:00 +2°C° 0.2 mm 3 mps 744 mmHg 89%
    17:00 +2°C° 0.2 mm 3 mps 744 mmHg 89%
    18:00 +2°C° 0.2 mm 3 mps 744 mmHg 89%
    19:00 +2°C° 0.2 mm 3 mps 744 mmHg 90%
    20:00 +1°C° 0.1 mm 3 mps 744 mmHg 90%
    21:00 +1°C° 0.1 mm 3 mps 745 mmHg 90%
    22:00 0°C° 0.1 mm 4 mps 745 mmHg 91%
    23:00 0°C° 0.2 mm 4 mps 744 mmHg 89%
    Show more